sat.trackr.live / text

‹ back to catalog

STARLINK-4413

NORAD 53207 · 2022-084U

PAYLOAD ACTIVE UNKNOWN

§ Identity

Operator
Country
US
Launch date
2022-07-22
Launch site
AFWTR
Launch vehicle
Mass (kg)
RCS (m²)

Purposes: comms

External: N2YO · Heavens-Above · Gunter

§ Orbital elements

Epoch: 2026-05-25T02:39:00.719136Z

Period
95.64 min
Inclination
97.4488°
Eccentricity
0.0001710
Mean motion
15.05662720 rev/d
Perigee alt
548.3 km
Apogee alt
550.7 km
Semi-major
6,927.6 km
B*
-6.7766e-5
RAAN
205.0121°
Arg perigee
126.2951°
Mean anomaly
233.8434°
Rev number
21,080

§ Raw data

STARLINK-44131 53207U 22084U   26145.11042499 -.00001037  00000+0 -67766-4 0  99992 53207  97.4488 205.0121 0001710 126.2951 233.8434 15.05662720210807

JSON: /api/v1/satellites/53207 · /tle

For live sub-satellite position, see the globe view (requires WebGL).

§ Visibility from observer

Set your observer location to see the next 7 days of passes ≥ 10°. The values pass through the URL so the page stays shareable.

No JS? Fill the form by hand. The geolocation button needs JavaScript.